{"data":{"norad_id":43065,"intl_designator":"2017-082A","name":"GCOM-C (SHIKISAI)","alt_names":[],"object_type":"PAYLOAD","status":"ACTIVE","operator":null,"country":"JPN","launch_date":"2017-12-23","launch_site_code":"TANSC","launch_vehicle":null,"mission":null,"orbit_class":"UNKNOWN","rcs_meters":null,"size_class":null,"mass_kg":null,"dimensions":null,"purposes":[],"wikipedia_slug":null,"has_3d_model":false,"image_url":null,"decayed_at":null,"tle_current":{"epoch":"2026-05-25T03:41:58.700832Z","epoch_age_seconds":68631,"freshness":"FRESH","line1":"1 43065U 17082A   26145.15415163  .00000104  00000+0  60435-4 0  9996","line2":"2 43065  98.6279 219.0996 0001225  97.5074 262.6246 14.27283813438652","mean_motion":14.27283813,"eccentricity":0.0001225,"inclination_deg":98.6279,"raan_deg":219.0996,"arg_perigee_deg":97.5074,"mean_anomaly_deg":262.6246,"bstar":6.0435e-5,"rev_number":43865,"period_min":100.89093611825,"perigee_km":799.94491362989,"apogee_km":801.7037591573,"semimajor_km":7178.9613363936,"source":"CELESTRAK","updated_at":"2026-05-25T13:37:55.759756Z"}}}